Flag for U.S.A. Weather past 2 weeks in Torrance, California, U.S.A.

Now
59 °F

Overcast.


Feels Like: 59 °F
Forecast: 57 / 67 °F
Wind: 5 mph from East

Location: Hawthorne Municipal Airport


UV Index: 5 (Moderate)

Visibility: 8 mi


Pressure: 29.89 "Hg

Humidity: 78%

Dew point: 52 °F

Location of TorranceLocation

Historic Weather in Torrance

°F

Torrance temperature yesterday

Maximum temperature yesterday: 65 °F (at 12:53 PM)
Minimum temperature yesterday: 55 °F (at 2:58 AM)
Average temperature yesterday: 59 °F

Past Weeks' High & Low Weather Summary

 TemperatureHumidityPressure
High85 °F (Apr 8, 1:53 PM)97% (Apr 10, 3:53 AM)30.15 "Hg (Apr 10, 3:53 AM)
Low50 °F (Apr 2, 5:53 AM)16% (Apr 8, 3:53 PM)29.84 "Hg (Apr 15, 5:53 PM)
Average61 °F61%30.00 "Hg
* Reported Mar 31 11:53 PM — Apr 15 11:53 PM, Torrance, Weather by CustomWeather, © 2014

Note: Actual official high and low records may vary slightly from our data, if they occured in-between our weather recording intervals... More about our weather records

Advertising

Historic Weather Conditions — Data for Previous 24 hours

 ConditionsComfort  
Time TempWeatherWind HumidityBarometerVisibility
11:53 PM
Apr 15
59 °FLow clouds.No wind81%29.88 "Hg10 mi
10:53 PM58 °FLow clouds.No wind81%29.88 "Hg10 mi
9:53 PM58 °FPassing clouds.3 mph81%29.88 "Hg10 mi
9:00 PM59 °FPassing clouds.8 mph77%29.87 "Hg10 mi
7:53 PM60 °FPartly sunny.6 mph78%29.85 "Hg10 mi
6:53 PM59 °FSunny.9 mph75%29.84 "Hg8 mi
5:53 PM62 °FSunny.8 mph67%29.84 "Hg9 mi
3:53 PM64 °FSunny.7 mph61%29.86 "Hg10 mi
2:53 PM65 °FSunny.12 mph59%29.90 "Hg10 mi
1:53 PM63 °FSunny.13 mph60%29.92 "Hg10 mi
12:53 PM65 °FSunny.10 mph59%29.93 "Hg10 mi
11:53 AM63 °FSunny.8 mph63%29.96 "Hg10 mi
10:53 AM60 °FSunny.9 mph69%29.99 "Hg10 mi
9:53 AM61 °FSunny.6 mph70%29.98 "Hg7 mi
8:53 AM57 °FLow clouds.No wind81%29.97 "Hg4 mi
7:53 AM56 °FFog.3 mph87%29.98 "Hg4 mi
6:53 AM57 °FLow clouds.No wind83%29.96 "Hg4 mi
5:53 AM57 °FLow clouds.No wind83%29.96 "Hg5 mi
4:53 AM57 °FFog.No wind87%29.97 "Hg6 mi
3:53 AM56 °FFog.7 mph90%29.99 "Hg5 mi
3:02 AM55 °FFog.8 mph94%30.00 "Hg1 mi
2:58 AM55 °FFog.9 mph94%30.00 "Hg2 mi
1:53 AM59 °FClear.No wind78%30.00 "Hg10 mi
Weather by CustomWeather, © 2014

See weather overview